AFL769 ULLI-UUEE

Flight info

Callsign AFL769
Flight time N/A
Altitude 37000
Route SUGIN1A SUGIN T873 NIRGI T73 NAMIN NAMIN3F
Aircraft A20N/M-V/N

Departure

Time 2026-05-05 18:28
Airport Pulkovo Airport (ULLI)

Arrival

Time N/A
Airport Sheremetyevo International Airport (UUEE)
Time Latitude Longitude Altitude Speed Heading
2026-05-05 18:02 59.80230 30.26548 83 ft 0 kts 106°
2026-05-05 18:20 59.80229 30.26553 83 ft 2 kts 106°
2026-05-05 18:20 59.80226 30.26634 83 ft 8 kts 64°
2026-05-05 18:21 59.80284 30.26687 82 ft 10 kts 17°
2026-05-05 18:21 59.80363 30.26734 80 ft 13 kts 16°
2026-05-05 18:21 59.80395 30.26757 80 ft 2 kts 35°
2026-05-05 18:21 59.80402 30.26793 79 ft 6 kts 85°
2026-05-05 18:22 59.80383 30.26951 80 ft 13 kts 106°
2026-05-05 18:22 59.80356 30.27133 80 ft 14 kts 106°
2026-05-05 18:22 59.80323 30.27354 78 ft 20 kts 106°
2026-05-05 18:22 59.80282 30.27631 78 ft 18 kts 106°
2026-05-05 18:23 59.80244 30.27885 76 ft 19 kts 106°
2026-05-05 18:23 59.80204 30.28150 74 ft 20 kts 106°
2026-05-05 18:23 59.80164 30.28418 74 ft 20 kts 106°
2026-05-05 18:23 59.80125 30.28683 74 ft 19 kts 106°
2026-05-05 18:24 59.80085 30.28953 73 ft 20 kts 106°
2026-05-05 18:24 59.80045 30.29223 71 ft 20 kts 105°
2026-05-05 18:24 59.80004 30.29498 71 ft 20 kts 106°
2026-05-05 18:24 59.79965 30.29760 73 ft 18 kts 106°
2026-05-05 18:25 59.79938 30.29978 74 ft 10 kts 89°
2026-05-05 18:25 59.79949 30.30050 74 ft 6 kts 54°
2026-05-05 18:25 59.79991 30.30140 74 ft 5 kts 46°
2026-05-05 18:25 59.79991 30.30142 74 ft 0 kts 46°
2026-05-05 18:26 59.79992 30.30142 74 ft 0 kts 46°
2026-05-05 18:26 59.80002 30.30163 74 ft 10 kts 46°
2026-05-05 18:26 59.80091 30.30289 74 ft 13 kts 355°
2026-05-05 18:26 59.80129 30.30203 74 ft 4 kts 287°
2026-05-05 18:27 59.80132 30.30185 74 ft 0 kts 287°
2026-05-05 18:27 59.80132 30.30184 74 ft 0 kts 287°
2026-05-05 18:28 59.80365 30.28612 71 ft 128 kts 286°
2026-05-05 18:28 59.80653 30.26656 335 ft 157 kts 285°
2026-05-05 18:28 59.80953 30.24587 1031 ft 156 kts 285°
2026-05-05 18:29 59.81259 30.22522 1752 ft 157 kts 285°
2026-05-05 18:29 59.81574 30.20406 2218 ft 172 kts 285°
2026-05-05 18:29 59.81932 30.17991 2678 ft 191 kts 285°
2026-05-05 18:29 59.82329 30.15307 3197 ft 209 kts 285°
2026-05-05 18:30 59.82745 30.12486 3454 ft 219 kts 285°
2026-05-05 18:30 59.83178 30.09554 3478 ft 220 kts 285°
2026-05-05 18:30 59.83609 30.06620 3485 ft 220 kts 285°
2026-05-05 18:30 59.84039 30.03678 3488 ft 220 kts 283°
2026-05-05 18:31 59.84130 30.00641 3477 ft 220 kts 257°
2026-05-05 18:31 59.83444 29.97937 3483 ft 223 kts 229°
2026-05-05 18:31 59.82145 29.96217 3488 ft 228 kts 202°
2026-05-05 18:31 59.80608 29.95277 3609 ft 235 kts 199°
2026-05-05 18:32 59.79013 29.94400 4389 ft 238 kts 199°
2026-05-05 18:32 59.77438 29.93533 5457 ft 235 kts 199°
2026-05-05 18:32 59.75867 29.92780 6313 ft 242 kts 188°
2026-05-05 18:32 59.74123 29.93320 6858 ft 269 kts 158°
2026-05-05 18:33 59.72651 29.95801 7523 ft 291 kts 124°
2026-05-05 18:33 59.71894 29.99558 8451 ft 296 kts 108°
2026-05-05 18:33 59.71353 30.03525 9312 ft 300 kts 107°
2026-05-05 18:33 59.70810 30.07560 10124 ft 305 kts 108°
2026-05-05 18:34 59.70230 30.11700 10672 ft 320 kts 108°
2026-05-05 18:34 59.69613 30.16101 11084 ft 337 kts 113°
2026-05-05 18:34 59.68653 30.20423 11473 ft 353 kts 119°
2026-05-05 18:34 59.67529 30.24886 12028 ft 364 kts 120°
2026-05-05 18:35 59.66396 30.29408 12796 ft 368 kts 119°
2026-05-05 18:35 59.65262 30.34027 13548 ft 373 kts 118°
2026-05-05 18:35 59.64139 30.38693 14256 ft 378 kts 118°
2026-05-05 18:35 59.63017 30.43407 14947 ft 382 kts 117°
2026-05-05 18:36 59.61875 30.48239 15634 ft 387 kts 117°
2026-05-05 18:36 59.60734 30.53077 16300 ft 391 kts 117°
2026-05-05 18:36 59.59590 30.57930 16946 ft 395 kts 116°
2026-05-05 18:36 59.58418 30.62898 17585 ft 400 kts 116°
2026-05-05 18:37 59.57232 30.67922 18210 ft 404 kts 117°
2026-05-05 18:37 59.56034 30.72996 18820 ft 408 kts 117°
2026-05-05 18:37 59.54831 30.78078 19408 ft 411 kts 117°
2026-05-05 18:37 59.53631 30.83135 19975 ft 415 kts 117°
2026-05-05 18:38 59.52377 30.88402 20549 ft 419 kts 116°
2026-05-05 18:38 59.51121 30.93659 21105 ft 423 kts 116°